This is the latest recevied weather packets stored in our database for station/object KA7EII-13. If no packets are shown the sender has not sent any weather packets the latest 10 day(s).
| Time | Temp. | Humidity | Pressure | Rain* | Wind** | Luminosity | Snow |
|---|---|---|---|---|---|---|---|
| 1777701263 | 5.56° C | 59% | 1109.2 hPa | 0 mm | - | 0 W/m² | - |
| 1777700964 | 5.56° C | 59% | 1109.3 hPa | 0 mm | - | 0 W/m² | - |
| 1777700661 | 5.56° C | 58% | 1109.1 hPa | 0 mm | - | 0 W/m² | - |
| 1777700358 | 5.56° C | 58% | 1109.2 hPa | 0 mm | - | 0 W/m² | - |
| 1777700055 | 5.56° C | 57% | 1109.2 hPa | 0 mm | - | 0 W/m² | - |
| 1777699753 | 6.11° C | 57% | 1109.3 hPa | 0 mm | - | 0 W/m² | - |
| 1777699451 | 6.11° C | 57% | 1109.4 hPa | 0 mm | - | 0 W/m² | - |
| 1777699149 | 6.11° C | 56% | 1109.2 hPa | 0 mm | - | 0 W/m² | - |
| 1777698847 | 6.11° C | 56% | 1109 hPa | 0 mm | - | 0 W/m² | - |
| 1777698543 | 6.11° C | 56% | 1109.2 hPa | 0 mm | - | 0 W/m² | - |
| 1777698240 | 6.11° C | 55% | 1109 hPa | 0 mm | - | 0 W/m² | - |
| 1777697937 | 6.67° C | 55% | 1109.2 hPa | 0 mm | - | 0 W/m² | - |
| 1777697633 | 6.67° C | 54% | 1109.2 hPa | 0 mm | - | 0 W/m² | - |
| 1777697330 | 6.67° C | 52% | 1109.4 hPa | 0 mm | - | 0 W/m² | - |
| 1777697025 | 7.22° C | 52% | 1109.2 hPa | 0 mm | - | 0 W/m² | - |
| 1777696723 | 7.78° C | 51% | 1109.2 hPa | 0 mm | - | 0 W/m² | - |
| 1777696421 | 7.78° C | 50% | 1109.2 hPa | 0 mm | - | 0 W/m² | - |
| 1777696120 | 7.78° C | 49% | 1109.4 hPa | 0 mm | - | 0 W/m² | - |
| 1777695817 | 7.78° C | 52% | 1109 hPa | 0 mm | - | 0 W/m² | - |
| 1777695515 | 7.78° C | 51% | 1109.3 hPa | 0 mm | - | 0 W/m² | - |
| 1777695212 | 8.33° C | 50% | 1109.2 hPa | 0 mm | - | 0 W/m² | - |
| 1777694909 | 8.33° C | 49% | 1109.2 hPa | 0 mm | - | 0 W/m² | - |
| 1777694606 | 8.89° C | 47% | 1109.2 hPa | 0 mm | - | 0 W/m² | - |
| 1777694302 | 9.44° C | 45% | 1109.2 hPa | 0 mm | - | 0 W/m² | - |
| 1777693999 | 9.44° C | 45% | 1109 hPa | 0 mm | - | 0 W/m² | - |
* Rain latest hour (hover to see other rain measurements)
** Current wind speed in m/s (hover to see current wind gust speed)